Вернуться в каталог

FENGYUN 1C DEB

АктивенPO
NORAD 30221·DEBRIS·🇨🇳 China

Запущен May 10, 1999 с Taiyuan Satellite Launch Center

Loading…

Ближайшие Пролёты (ближайшие 24 часа)

TLE

СвежийSource: Space-Track

Эпоха: Sep 14, 2026, 13:25 UTC

1 30221U 99025WE  26257.55912162  .00000435  00000-0  12119-3 0  9995
2 30221  98.9583   5.6216 0142742 297.8085  60.8698 14.46340232 33889

Отслеживайте FENGYUN 1C DEB в реальном времени с AllMySat

Download on the App Store